Torna al catalogo

FENGYUN 1C DEB

AttivoSSO
NORAD 30678·DEBRIS·🇨🇳 China

Lanciato May 10, 1999 da Taiyuan Satellite Launch Center

Loading…

Prossimi Passaggi (prossime 24 ore)

TLE

AggiornatoSource: Space-Track

Epoca: Sep 14, 2026, 09:26 UTC

1 30678U 99025AQL 26257.39309905  .00003245  00000-0  13037-2 0  9999
2 30678  99.0779 233.1164 0068720 154.0381   1.7109 14.27597155998046

Traccia FENGYUN 1C DEB in tempo reale con AllMySat

Download on the App Store